Weather History for Jasper, TX

Change the Weather History Date:

Sunday, December 15, 2013

  Actual Average (KLFK) Record (KLFK)
Temperature  
Mean Temperature 42 °F 50 °F  
Max Temperature 52 °F 61 °F 83 °F (1933)
Min Temperature 31 °F 39 °F 20 °F (1914)
Degree Days  
Heating Degree Days 24 15  
Month to date heating degree days 210  
Since 1 July heating degree days 517  
Cooling Degree Days 0 0  
Month to date cooling degree days 4  
Year to date cooling degree days 2587  
Moisture  
Dew Point 34 °F    
Average Humidity 79    
Maximum Humidity 100    
Minimum Humidity 49    
Precipitation  
Precipitation 0.00 in 0.14 in 2.17 in (1967)
Month to date precipitation 2.23  
Year to date precipitation 46.74  
Snow  
Snow 0.00 in - - ()
Month to date snowfall  
Since 1 July snowfall  
Snow Depth -    
Sea Level Pressure  
Sea Level Pressure 30.33 in    
Wind  
Wind Speed 6 mph (NNW)    
Max Wind Speed 12 mph    
Max Gust Speed 22 mph    
Visibility 8 miles    
Events      
T = Trace of Precipitation, MM = Missing Value Source: NWS Daily Summary

Daily Weather History Graph

Daily Weather History Graph

Search for Another Location

Airport:

Trip Planner

Search our weather history database for the weather conditions in past years. The results will help you decide how hot, cold, wet, or windy it might be!

Date:

Astronomy

Dec. 15, 2013 Rise Set
Actual Time 7:06 AM CST 5:16 PM CST
Civil Twilight 6:40 AM CST 5:42 PM CST
Nautical Twilight 6:09 AM CST 6:13 PM CST
Astronomical Twilight 5:40 AM CST 6:42 PM CST
Moon 4:16 PM CST (12/15) 5:28 AM CST (12/15)
Length of Visible Light 11h 02m
Length of Day
10h 09m
Waxing Gibbous, 98% of the Moon is Illuminated
Dec 15
Waxing Gibbous
Dec 17
Full
Dec 25
Last Quarter
Jan 1
New
Jan 7
First Quarter

Hourly Weather History & Observations

Time (CST) Temp. Windchill Dew Point Humidity Pressure Visibility Wind Dir Wind Speed Gust Speed Precip Events Conditions
12:15 AM 42.6 °F 37.2 °F 34.2 °F 72% 30.28 in 10.0 mi North 9.2 mph - N/A   Overcast
12:35 AM 42.3 °F 35.9 °F 34.7 °F 75% 30.28 in 10.0 mi NNW 11.5 mph 17.3 mph N/A   Overcast
12:55 AM 42.1 °F 36.6 °F 34.3 °F 74% 30.28 in 10.0 mi NNW 9.2 mph 16.1 mph N/A   Overcast
1:15 AM 41.7 °F 36.7 °F 34.2 °F 75% 30.29 in 10.0 mi NNW 8.1 mph 17.3 mph N/A   Overcast
1:35 AM 41.0 °F 35.8 °F 33.8 °F 76% 30.28 in 10.0 mi NNW 8.1 mph 16.1 mph N/A   Mostly Cloudy
1:55 AM 39.7 °F 33.7 °F 33.1 °F 77% 30.29 in 10.0 mi NNW 9.2 mph 20.7 mph N/A   Mostly Cloudy
2:15 AM 39.9 °F 33.9 °F 33.3 °F 77% 30.29 in 10.0 mi NNW 9.2 mph - N/A   Overcast
2:35 AM 39.6 °F 34.7 °F 33.3 °F 78% 30.29 in 10.0 mi NNW 6.9 mph - N/A   Mostly Cloudy
2:55 AM 38.7 °F 35.2 °F 33.3 °F 81% 30.29 in 10.0 mi NNW 4.6 mph - N/A   Mostly Cloudy
3:15 AM 37.9 °F 32.7 °F 33.1 °F 83% 30.30 in 10.0 mi North 6.9 mph - N/A   Scattered Clouds
3:35 AM 37.6 °F 33.1 °F 32.7 °F 83% 30.30 in 10.0 mi NNW 5.8 mph - N/A   Clear
3:55 AM 36.3 °F 31.6 °F 32.4 °F 86% 30.31 in 10.0 mi NNW 5.8 mph - N/A   Clear
4:15 AM 35.1 °F - 32.2 °F 89% 30.30 in 7.0 mi Calm Calm - N/A   Clear
4:35 AM 34.7 °F - 32.4 °F 91% 30.31 in 7.0 mi Calm Calm - N/A   Clear
4:55 AM 34.9 °F - 32.5 °F 91% 30.31 in 7.0 mi Calm Calm - N/A   Clear
5:15 AM 34.2 °F 30.0 °F 32.4 °F 93% 30.32 in 7.0 mi NNW 4.6 mph - N/A   Clear
5:35 AM 34.0 °F 31.0 °F 32.2 °F 93% 30.32 in 7.0 mi North 3.5 mph - N/A   Clear
5:55 AM 33.3 °F 30.2 °F 32.0 °F 95% 30.32 in 5.0 mi NNW 3.5 mph - N/A   Clear
6:15 AM 32.7 °F - 32.0 °F 97% 30.32 in 5.0 mi Calm Calm - N/A   Clear
6:35 AM 32.7 °F - 32.0 °F 97% 30.33 in 4.0 mi Calm Calm - N/A   Clear
6:55 AM 32.0 °F - 31.6 °F 99% 30.33 in 3.0 mi Calm Calm - N/A   Clear
7:15 AM 31.5 °F - 31.3 °F 99% 30.34 in 2.5 mi Calm Calm - N/A   Clear
7:35 AM 31.8 °F 27.3 °F 31.6 °F 99% 30.34 in 4.0 mi North 4.6 mph - N/A   Clear
7:55 AM 33.1 °F 26.9 °F 32.2 °F 96% 30.36 in 5.0 mi NNW 6.9 mph - N/A   Clear
8:15 AM 34.9 °F 29.0 °F 32.7 °F 92% 30.36 in 5.0 mi North 6.9 mph - N/A   Clear
8:35 AM 36.5 °F 31.0 °F 33.4 °F 89% 30.36 in 7.0 mi North 6.9 mph - N/A   Clear
8:55 AM 38.1 °F 32.3 °F 33.6 °F 84% 30.37 in 7.0 mi North 8.1 mph - N/A   Clear
9:15 AM 39.6 °F 35.4 °F 33.4 °F 79% 30.38 in 7.0 mi NNE 5.8 mph - N/A   Clear
9:35 AM 40.5 °F 35.8 °F 32.5 °F 73% 30.38 in 7.0 mi North 6.9 mph - N/A   Clear
9:55 AM 41.5 °F 37.1 °F 32.5 °F 70% 30.38 in 7.0 mi NNE 6.9 mph - N/A   Clear
10:15 AM 42.4 °F 37.5 °F 32.4 °F 68% 30.39 in 10.0 mi NNW 8.1 mph - N/A   Clear
10:35 AM 43.5 °F 40.1 °F 32.5 °F 65% 30.38 in 10.0 mi North 5.8 mph - N/A   Clear
10:55 AM 44.8 °F 41.0 °F 33.1 °F 64% 30.38 in 10.0 mi NNW 6.9 mph - N/A   Clear
11:15 AM 45.5 °F 41.8 °F 32.9 °F 61% 30.37 in 10.0 mi NW 6.9 mph - N/A   Clear
11:35 AM 46.0 °F 41.9 °F 33.1 °F 61% 30.36 in 10.0 mi NNW 8.1 mph - N/A   Clear
11:55 AM 46.8 °F - 33.1 °F 59% 30.35 in 10.0 mi NW 9.2 mph - N/A   Clear
12:15 PM 47.8 °F - 33.4 °F 57% 30.34 in 10.0 mi NNW 8.1 mph - N/A   Clear
12:35 PM 48.9 °F - 33.4 °F 55% 30.33 in 10.0 mi North 9.2 mph - N/A   Clear
12:55 PM 49.8 °F - 33.8 °F 54% 30.33 in 10.0 mi NW 9.2 mph 21.9 mph N/A   Clear
1:15 PM 50.4 °F - 33.3 °F 52% 30.32 in 10.0 mi NNW 9.2 mph - N/A   Clear
1:35 PM 50.9 °F - 33.8 °F 52% 30.31 in 10.0 mi NW 8.1 mph - N/A   Clear
1:55 PM 51.6 °F - 33.8 °F 51% 30.31 in 10.0 mi North 8.1 mph - N/A   Clear
2:15 PM 52.0 °F - 33.8 °F 50% 30.31 in 10.0 mi NNE 8.1 mph - N/A   Clear
2:35 PM 52.2 °F - 33.8 °F 50% 30.30 in 10.0 mi North 8.1 mph - N/A   Clear
2:55 PM 52.5 °F - 34.3 °F 50% 30.30 in 10.0 mi North 5.8 mph - N/A   Clear
3:15 PM 52.7 °F - 34.3 °F 50% 30.30 in 10.0 mi North 5.8 mph - N/A   Clear
3:35 PM 52.7 °F - 34.2 °F 49% 30.30 in 10.0 mi NW 5.8 mph - N/A   Clear
3:55 PM 52.7 °F - 34.5 °F 50% 30.31 in 10.0 mi North 5.8 mph - N/A   Clear
4:15 PM 52.3 °F - 34.5 °F 51% 30.31 in 10.0 mi NNW 5.8 mph - N/A   Clear
4:35 PM 52.0 °F - 34.9 °F 52% 30.31 in 10.0 mi NNW 4.6 mph - N/A   Clear
4:55 PM 51.1 °F - 35.1 °F 54% 30.31 in 10.0 mi Calm Calm - N/A   Clear
5:15 PM 49.6 °F - 37.0 °F 62% 30.32 in 10.0 mi Calm Calm - N/A   Clear
5:35 PM 44.8 °F - 39.2 °F 81% 30.32 in 10.0 mi Calm Calm - N/A   Clear
5:55 PM 42.6 °F - 39.4 °F 88% 30.32 in 10.0 mi Calm Calm - N/A   Clear
6:15 PM 42.1 °F - 39.2 °F 90% 30.32 in 7.0 mi Calm Calm - N/A   Clear
6:35 PM 40.5 °F - 38.7 °F 93% 30.33 in 10.0 mi Calm Calm - N/A   Clear
6:55 PM 38.8 °F - 37.8 °F 96% 30.33 in 5.0 mi Calm Calm - N/A   Clear
7:15 PM 37.9 °F - 37.2 °F 97% 30.33 in 10.0 mi Calm Calm - N/A   Clear
7:35 PM 37.8 °F - 37.4 °F 99% 30.33 in 7.0 mi Calm Calm - N/A   Clear
7:55 PM 37.0 °F - 36.7 °F 99% 30.33 in 7.0 mi Calm Calm - N/A   Clear
8:15 PM 36.1 °F - 36.0 °F 99% 30.34 in 5.0 mi Calm Calm - N/A   Clear
8:35 PM 35.4 °F - 35.2 °F 99% 30.34 in 4.0 mi Calm Calm - N/A   Clear
8:55 PM 34.9 °F - 34.7 °F 99% 30.34 in 4.0 mi Calm Calm - N/A   Clear
9:15 PM 34.3 °F - 34.3 °F 100% 30.33 in 2.5 mi Calm Calm - N/A   Clear
9:35 PM 34.2 °F - 34.2 °F 100% 30.34 in 4.0 mi Calm Calm - N/A   Clear
9:55 PM 33.6 °F - 33.6 °F 100% 30.34 in 3.0 mi Calm Calm - N/A   Clear
10:15 PM 33.3 °F - 33.3 °F 100% 30.34 in 2.5 mi Calm Calm - N/A   Clear
10:35 PM 33.1 °F - 33.1 °F 100% 30.34 in 2.0 mi Calm Calm - N/A   Clear
10:55 PM 32.4 °F - 32.4 °F 100% 30.34 in 2.0 mi Calm Calm - N/A   Clear
11:15 PM 32.2 °F - 32.2 °F 100% 30.35 in 4.0 mi Calm Calm - N/A   Clear
11:35 PM 32.0 °F - 32.0 °F 100% 30.35 in 5.0 mi Calm Calm - N/A   Clear
11:55 PM 32.0 °F - 32.0 °F 100% 30.35 in 1.5 mi Calm Calm - N/A   Mist